• In Belarus
  • List of Countries
  • For 7 days
  • Water Temperature
  • Satellite Maps
  • Weather Map
  • Weather Widgets
  • user-avatar
    Login

    Hourly Weather Glinka

    Today, 26 September, Wednesday

    Time Temperature Precipitation Wind Pressure Humidity
    00:00 +6°C° 0 mm 2 mps 770 mmHg 72%
    01:00 +6°C° 0 mm 2 mps 770 mmHg 71%
    02:00 +6°C° 0 mm 2 mps 770 mmHg 72%
    03:00 +5°C° 0 mm 2 mps 769 mmHg 73%
    04:00 +5°C° 0 mm 2 mps 769 mmHg 74%
    05:00 +5°C° 0 mm 3 mps 769 mmHg 72%
    06:00 +5°C° 0 mm 3 mps 769 mmHg 70%
    07:00 +5°C° 0 mm 4 mps 769 mmHg 67%
    08:00 +7°C° 0 mm 4 mps 769 mmHg 60%
    09:00 +10°C° 0 mm 4 mps 768 mmHg 54%
    10:00 +12°C° 0 mm 5 mps 768 mmHg 48%
    11:00 +13°C° 0 mm 5 mps 767 mmHg 44%
    12:00 +14°C° 0 mm 5 mps 767 mmHg 41%
    13:00 +15°C° 0 mm 5 mps 766 mmHg 38%
    14:00 +15°C° 0 mm 5 mps 765 mmHg 40%
    15:00 +15°C° 0 mm 5 mps 765 mmHg 42%
    16:00 +15°C° 0 mm 4 mps 764 mmHg 44%
    17:00 +14°C° 0 mm 4 mps 764 mmHg 45%
    18:00 +13°C° 0 mm 5 mps 763 mmHg 46%
    19:00 +13°C° 0 mm 5 mps 763 mmHg 47%
    20:00 +13°C° 0 mm 5 mps 763 mmHg 46%
    21:00 +13°C° 0 mm 5 mps 763 mmHg 46%
    22:00 +13°C° 0 mm 5 mps 763 mmHg 46%
    23:00 +13°C° 0.1 mm 5 mps 763 mmHg 50%

    Tomorrow, 27 September, Thursday

    Time Temperature Precipitation Wind Pressure Humidity
    00:00 +13°C° 0.1 mm 5 mps 763 mmHg 54%
    01:00 +13°C° 0.1 mm 5 mps 763 mmHg 58%
    02:00 +13°C° 0 mm 5 mps 763 mmHg 59%
    03:00 +12°C° 0 mm 5 mps 762 mmHg 61%
    04:00 +12°C° 0 mm 5 mps 762 mmHg 63%
    05:00 +12°C° 0 mm 5 mps 762 mmHg 65%
    06:00 +12°C° 0 mm 5 mps 762 mmHg 66%
    07:00 +12°C° 0 mm 5 mps 762 mmHg 68%
    08:00 +14°C° 0 mm 5 mps 763 mmHg 66%
    09:00 +15°C° 0 mm 5 mps 763 mmHg 65%
    10:00 +17°C° 0 mm 5 mps 763 mmHg 63%
    11:00 +19°C° 0 mm 5 mps 762 mmHg 62%
    12:00 +20°C° 0 mm 4 mps 762 mmHg 60%
    13:00 +21°C° 0 mm 4 mps 762 mmHg 59%
    14:00 +21°C° 0 mm 4 mps 761 mmHg 60%
    15:00 +21°C° 0 mm 4 mps 761 mmHg 60%
    16:00 +21°C° 0 mm 3 mps 760 mmHg 61%
    17:00 +20°C° 0 mm 3 mps 760 mmHg 67%
    18:00 +19°C° 0 mm 3 mps 759 mmHg 72%
    19:00 +17°C° 0 mm 2 mps 759 mmHg 78%
    20:00 +17°C° 0 mm 3 mps 759 mmHg 78%
    21:00 +17°C° 0 mm 3 mps 758 mmHg 78%
    22:00 +16°C° 0 mm 3 mps 758 mmHg 79%
    23:00 +16°C° 0 mm 3 mps 757 mmHg 76%

    Day after tomorrow, 28 September, Friday

    Time Temperature Precipitation Wind Pressure Humidity
    00:00 +16°C° 0 mm 3 mps 757 mmHg 74%
    01:00 +15°C° 0 mm 4 mps 756 mmHg 72%
    02:00 +14°C° 0 mm 4 mps 756 mmHg 71%
    03:00 +14°C° 0 mm 4 mps 755 mmHg 69%
    04:00 +13°C° 0 mm 4 mps 755 mmHg 68%
    05:00 +13°C° 0 mm 4 mps 755 mmHg 69%
    06:00 +12°C° 0 mm 4 mps 755 mmHg 69%
    07:00 +12°C° 0 mm 4 mps 755 mmHg 69%
    08:00 +13°C° 0 mm 4 mps 756 mmHg 70%
    09:00 +14°C° 0 mm 4 mps 756 mmHg 70%
    10:00 +15°C° 0 mm 4 mps 756 mmHg 71%
    11:00 +15°C° 0 mm 4 mps 756 mmHg 69%
    12:00 +15°C° 0 mm 4 mps 756 mmHg 66%
    13:00 +15°C° 0 mm 4 mps 756 mmHg 64%
    14:00 +15°C° 0 mm 4 mps 757 mmHg 60%
    15:00 +15°C° 0 mm 4 mps 757 mmHg 55%
    16:00 +15°C° 0 mm 4 mps 757 mmHg 51%
    17:00 +14°C° 0 mm 3 mps 757 mmHg 55%
    18:00 +12°C° 0 mm 3 mps 757 mmHg 59%
    19:00 +12°C° 0 mm 2 mps 758 mmHg 63%
    20:00 +12°C° 0 mm 2 mps 758 mmHg 64%
    21:00 +12°C° 0 mm 2 mps 759 mmHg 66%
    22:00 +12°C° 0 mm 2 mps 759 mmHg 67%
    23:00 +10°C° 0 mm 2 mps 759 mmHg 71%

    29 September, Saturday

    Time Temperature Precipitation Wind Pressure Humidity
    00:00 +9°C° 0 mm 2 mps 759 mmHg 75%
    01:00 +8°C° 0 mm 3 mps 760 mmHg 80%
    02:00 +8°C° 0 mm 2 mps 760 mmHg 82%
    03:00 +7°C° 0 mm 2 mps 760 mmHg 84%
    04:00 +7°C° 0 mm 2 mps 760 mmHg 86%
    05:00 +7°C° 0 mm 2 mps 761 mmHg 85%
    06:00 +7°C° 0 mm 2 mps 761 mmHg 83%
    07:00 +7°C° 0 mm 2 mps 762 mmHg 81%
    08:00 +9°C° 0 mm 2 mps 762 mmHg 73%
    09:00 +10°C° 0 mm 2 mps 762 mmHg 65%
    10:00 +13°C° 0 mm 2 mps 763 mmHg 57%
    11:00 +14°C° 0 mm 2 mps 763 mmHg 52%
    12:00 +14°C° 0 mm 2 mps 763 mmHg 47%
    13:00 +15°C° 0 mm 2 mps 763 mmHg 42%
    14:00 +15°C° 0 mm 2 mps 763 mmHg 42%
    15:00 +15°C° 0 mm 2 mps 763 mmHg 42%
    16:00 +15°C° 0 mm 2 mps 763 mmHg 43%
    17:00 +13°C° 0 mm 1 mps 763 mmHg 46%
    18:00 +12°C° 0 mm 1 mps 763 mmHg 50%
    19:00 +10°C° 0 mm 0 mps 763 mmHg 54%
    20:00 +9°C° 0 mm 0 mps 763 mmHg 55%
    21:00 +9°C° 0 mm 0 mps 763 mmHg 57%
    22:00 +9°C° 0 mm 1 mps 764 mmHg 58%
    23:00 +9°C° 0 mm 1 mps 764 mmHg 59%

    30 September, Sunday

    Time Temperature Precipitation Wind Pressure Humidity
    00:00 +9°C° 0 mm 1 mps 763 mmHg 61%
    01:00 +8°C° 0 mm 1 mps 763 mmHg 62%
    02:00 +8°C° 0 mm 1 mps 763 mmHg 63%
    03:00 +8°C° 0 mm 1 mps 763 mmHg 64%
    04:00 +6°C° 0 mm 2 mps 762 mmHg 66%
    05:00 +7°C° 0 mm 2 mps 762 mmHg 66%
    06:00 +7°C° 0 mm 2 mps 762 mmHg 66%
    07:00 +7°C° 0 mm 2 mps 762 mmHg 66%
    08:00 +9°C° 0 mm 2 mps 762 mmHg 58%
    09:00 +12°C° 0 mm 2 mps 762 mmHg 51%
    10:00 +13°C° 0 mm 3 mps 762 mmHg 44%
    11:00 +14°C° 0 mm 3 mps 761 mmHg 41%
    12:00 +14°C° 0 mm 3 mps 760 mmHg 38%
    13:00 +16°C° 0 mm 3 mps 760 mmHg 36%
    14:00 +16°C° 0 mm 3 mps 759 mmHg 37%
    15:00 +16°C° 0 mm 3 mps 758 mmHg 38%
    16:00 +14°C° 0 mm 3 mps 758 mmHg 40%
    17:00 +13°C° 0 mm 3 mps 758 mmHg 43%
    18:00 +12°C° 0 mm 2 mps 757 mmHg 47%
    19:00 +10°C° 0 mm 2 mps 757 mmHg 51%
    20:00 +9°C° 0 mm 2 mps 757 mmHg 52%
    21:00 +9°C° 0 mm 2 mps 757 mmHg 54%
    22:00 +8°C° 0 mm 2 mps 756 mmHg 55%
    23:00 +8°C° 0 mm 2 mps 756 mmHg 56%

    1 October, Monday

    Time Temperature Precipitation Wind Pressure Humidity
    00:00 +8°C° 0 mm 2 mps 755 mmHg 58%
    01:00 +7°C° 0 mm 2 mps 755 mmHg 59%
    02:00 +7°C° 0 mm 2 mps 754 mmHg 60%
    03:00 +7°C° 0 mm 2 mps 754 mmHg 61%
    04:00 +6°C° 0 mm 2 mps 753 mmHg 61%
    05:00 +6°C° 0 mm 2 mps 753 mmHg 62%
    06:00 +7°C° 0 mm 2 mps 753 mmHg 62%
    07:00 +7°C° 0 mm 2 mps 752 mmHg 62%
    08:00 +9°C° 0 mm 2 mps 752 mmHg 58%
    09:00 +12°C° 0 mm 2 mps 752 mmHg 53%
    10:00 +14°C° 0 mm 2 mps 752 mmHg 48%
    11:00 +15°C° 0 mm 2 mps 751 mmHg 45%
    12:00 +16°C° 0 mm 2 mps 751 mmHg 43%
    13:00 +17°C° 0 mm 2 mps 751 mmHg 40%
    14:00 +17°C° 0 mm 2 mps 751 mmHg 41%
    15:00 +16°C° 0 mm 3 mps 751 mmHg 41%
    16:00 +16°C° 0 mm 3 mps 751 mmHg 42%
    17:00 +14°C° 0 mm 3 mps 751 mmHg 47%
    18:00 +13°C° 0 mm 2 mps 751 mmHg 51%
    19:00 +12°C° 0 mm 2 mps 752 mmHg 55%
    20:00 +10°C° 0 mm 2 mps 752 mmHg 58%
    21:00 +10°C° 0 mm 3 mps 752 mmHg 61%
    22:00 +9°C° 0 mm 3 mps 753 mmHg 64%
    23:00 +9°C° 0 mm 3 mps 753 mmHg 71%
    Show more